Погода в Пуциловке

Россия / Приморский край     43°49′36″N   131°37′48″E
темп.,
°C
ветер,
м/с
пор.,
м/с
влажн.,
%
обл.,
%
осадки,
мм/ч
давл.,
гПа
погр.,
м
11 мая, вт
вт1101:00+6ю009338 0.0 101510
04:00+5з119416 0.0 101510
07:00+5сз11938 0.0 101634
10:00+11с357018 0.0 1017833
13:00+13св456085 0.0 10181080
16:00+15св44540 0.0 10161005
19:00+14вюв336217 0.0 1017516
22:00+8ю5128394 0.0 1019356
12 мая, ср
ср1201:00+6ю6149081 0.0 1019548
04:00+7ю6158591 0.0 1018650
07:00+7ю6158480 0.0 1018740
10:00+9ю91676100 0.0 1017863
13:00+9ю71280100 0.0 1017830
16:00+9ю81686100 0.4 1015686
19:00+8ю61391100 0.3 1015628
22:00+8ю7179291 0.3 1015665
13 мая, чт
чт1301:00+8ю6149597 0.0 1015539
04:00+8ю5129576 0.0 1014410
07:00+8ю5119289 0.0 1015372
10:00+13ю5775100 0.0 1015485
13:00+14ююв7971100 0.0 1014399
16:00+17ююв7861100 0.0 1012617
19:00+14ююв51176100 0.0 1012298
22:00+9ю4119375 0.0 1013201
14 мая, пт
пт1401:00+8ююв3793100 0.0 1013165
04:00+8ююв379494 0.0 1012168
07:00+9ююв41090100 0.0 1012286
10:00+14ю6868100 0.0 1011574
13:00+15ю7967100 0.0 1010628
16:00+14ююв81173100 0.0 1009440
19:00+12ю61380100 0.0 1009386
22:00+11ю51193100 0.6 1010310
15 мая, сб
сб1501:00+11ю61497100 2.9 1008407
04:00+11ю51396100 5.1 1007418
07:00+11ю51198100 0.4 1007332
10:00+13з1593100 0.4 1008266
13:00+13с2386100 0.0 1009258
16:00+14ссв1283100 0.0 1008251
19:00+15ссз1472100 0.0 1007453
22:00+12зсз2376100 0.0 100862